Time,TemperatureF,DewpointF,PressureIn,WindDirection,WindDirectionDegrees,WindSpeedMPH,WindSpeedGustMPH,Humidity,HourlyPrecipIn,Conditions,Clouds,dailyrainin,SoftwareType,DateUTC
2013-12-30 00:00:00,38.1,37.3,30.08,SE,132,0.0,0.0,97,0.00,RA,,0.00,WeatherDisplay:10.37,2013-12-30 05:00:00,
2013-12-30 00:09:00,38.2,37.4,30.08,SE,132,0.0,0.0,97,0.00,OVC,,0.00,WeatherDisplay:10.37,2013-12-30 05:09:00,
2013-12-30 00:19:00,38.3,37.5,30.08,SE,132,0.0,2.0,97,0.00,OVC,,0.00,WeatherDisplay:10.37,2013-12-30 05:19:00,
2013-12-30 00:30:00,38.5,37.7,30.08,SE,132,0.0,2.0,97,0.00,OVC,,0.00,WeatherDisplay:10.37,2013-12-30 05:30:00,
2013-12-30 00:40:00,38.4,37.6,30.08,SE,132,0.0,0.0,97,0.00,OVC,,0.00,WeatherDisplay:10.37,2013-12-30 05:40:00,
2013-12-30 00:50:00,38.2,37.4,30.09,SE,132,0.0,0.0,97,0.00,OVC,,0.00,WeatherDisplay:10.37,2013-12-30 05:50:00,
2013-12-30 01:01:00,38.2,37.4,30.09,SE,132,0.0,0.0,97,0.00,OVC,,0.00,WeatherDisplay:10.37,2013-12-30 06:01:00,
2013-12-30 01:10:00,38.3,37.5,30.08,SE,132,0.0,0.0,97,0.00,SCT,,0.00,WeatherDisplay:10.37,2013-12-30 06:10:00,
2013-12-30 01:20:00,38.6,37.8,30.08,SE,132,0.0,2.0,97,0.00,SCT,,0.00,WeatherDisplay:10.37,2013-12-30 06:20:00,
2013-12-30 01:31:00,38.8,38.0,30.08,SE,132,0.0,1.0,97,0.00,SCT,,0.00,WeatherDisplay:10.37,2013-12-30 06:31:00,
2013-12-30 01:40:00,38.9,38.1,30.08,SE,132,0.0,2.0,97,0.00,BKN,,0.00,WeatherDisplay:10.37,2013-12-30 06:40:00,
2013-12-30 01:50:00,39.1,38.3,30.08,SE,132,0.0,1.0,97,0.00,BKN,,0.00,WeatherDisplay:10.37,2013-12-30 06:50:00,
2013-12-30 02:00:00,39.3,38.5,30.08,SE,132,0.0,1.0,97,0.00,BKN,,0.00,WeatherDisplay:10.37,2013-12-30 07:00:00,
2013-12-30 02:10:00,41.1,40.5,30.09,West,267,2.0,4.0,98,0.00,OVC,,0.00,WeatherDisplay:10.37,2013-12-30 07:10:00,
2013-12-30 02:20:00,42.1,41.6,30.09,West,267,0.0,4.0,98,0.00,OVC,,0.00,WeatherDisplay:10.37,2013-12-30 07:20:00,
2013-12-30 02:30:00,42.7,42.2,30.09,West,267,0.0,4.0,98,0.00,OVC,,0.00,WeatherDisplay:10.37,2013-12-30 07:30:00,
2013-12-30 02:40:00,43.2,42.2,30.11,West,267,2.0,4.0,96,0.00,OVC,,0.00,WeatherDisplay:10.37,2013-12-30 07:40:00,
2013-12-30 02:50:00,43.7,42.1,30.10,West,261,0.0,5.0,94,0.00,OVC,,0.00,WeatherDisplay:10.37,2013-12-30 07:50:00,
2013-12-30 03:00:00,43.9,41.7,30.10,West,259,0.0,2.0,92,0.00,OVC,,0.00,WeatherDisplay:10.37,2013-12-30 08:00:00,
2013-12-30 03:10:00,43.7,41.8,30.10,West,259,0.0,2.0,93,0.00,OVC,,0.00,WeatherDisplay:10.37,2013-12-30 08:10:00,
2013-12-30 03:20:00,43.5,41.3,30.09,WSW,258,2.0,3.0,92,0.00,OVC,,0.00,WeatherDisplay:10.37,2013-12-30 08:20:00,
2013-12-30 03:30:00,43.3,41.4,30.09,WSW,258,0.0,2.0,93,0.00,OVC,,0.00,WeatherDisplay:10.37,2013-12-30 08:30:00,
2013-12-30 03:40:00,43.8,41.6,30.11,West,265,0.0,6.0,92,0.00,OVC,,0.00,WeatherDisplay:10.37,2013-12-30 08:40:00,
2013-12-30 03:50:00,44.2,41.7,30.11,West,269,1.0,3.0,91,0.00,OVC,,0.00,WeatherDisplay:10.37,2013-12-30 08:50:00,
2013-12-30 04:00:00,44.4,41.6,30.09,West,269,1.0,4.0,90,0.00,OVC,,0.00,WeatherDisplay:10.37,2013-12-30 09:00:00,
2013-12-30 04:10:00,43.9,41.5,30.10,West,269,1.0,3.0,91,0.00,OVC,,0.00,WeatherDisplay:10.37,2013-12-30 09:10:00,
2013-12-30 04:20:00,43.6,41.4,30.10,West,269,0.0,4.0,92,0.00,OVC,,0.00,WeatherDisplay:10.37,2013-12-30 09:20:00,
2013-12-30 04:30:00,43.6,41.4,30.09,West,269,0.0,2.0,92,0.00,OVC,,0.00,WeatherDisplay:10.37,2013-12-30 09:30:00,
2013-12-30 04:40:00,43.4,41.2,30.10,West,269,0.0,0.0,92,0.00,OVC,,0.00,WeatherDisplay:10.37,2013-12-30 09:40:00,
2013-12-30 04:50:00,43.3,41.1,30.10,West,269,0.0,0.0,92,0.00,OVC,,0.00,WeatherDisplay:10.37,2013-12-30 09:50:00,
2013-12-30 05:00:00,43.1,40.9,30.11,West,269,0.0,0.0,92,0.00,OVC,,0.00,WeatherDisplay:10.37,2013-12-30 10:00:00,
2013-12-30 05:10:00,43.4,41.2,30.10,West,269,1.0,3.0,92,0.00,OVC,,0.00,WeatherDisplay:10.37,2013-12-30 10:10:00,
2013-12-30 05:20:00,44.1,41.6,30.11,North,9,1.0,6.0,91,0.00,OVC,,0.00,WeatherDisplay:10.37,2013-12-30 10:20:00,
2013-12-30 05:30:00,44.4,41.4,30.11,NW,322,1.0,5.0,89,0.00,OVC,,0.00,WeatherDisplay:10.37,2013-12-30 10:30:00,
2013-12-30 05:40:00,44.2,41.2,30.10,NNE,19,2.0,6.0,89,0.00,OVC,,0.00,WeatherDisplay:10.37,2013-12-30 10:40:00,
2013-12-30 05:50:00,43.9,41.2,30.11,NNE,31,0.0,2.0,90,0.00,OVC,,0.00,WeatherDisplay:10.37,2013-12-30 10:50:00,
2013-12-30 06:00:00,43.4,40.9,30.12,NNE,31,1.0,3.0,91,0.00,OVC,,0.00,WeatherDisplay:10.37,2013-12-30 11:00:00,
2013-12-30 06:10:00,43.1,40.7,30.12,NNE,31,2.0,5.0,91,0.00,BKN,,0.00,WeatherDisplay:10.37,2013-12-30 11:10:00,
2013-12-30 06:20:00,42.9,40.5,30.12,NE,34,3.0,7.0,91,0.00,BKN,,0.00,WeatherDisplay:10.37,2013-12-30 11:20:00,
2013-12-30 06:30:00,42.9,40.5,30.12,NNE,31,3.0,6.0,91,0.00,BKN,,0.00,WeatherDisplay:10.37,2013-12-30 11:30:00,
2013-12-30 06:41:00,42.7,40.3,30.13,NE,43,1.0,5.0,91,0.00,BKN,,0.00,WeatherDisplay:10.37,2013-12-30 11:41:00,
2013-12-30 06:51:00,42.5,40.1,30.13,NE,45,2.0,5.0,91,0.00,OVC,,0.00,WeatherDisplay:10.37,2013-12-30 11:51:00,
2013-12-30 07:01:00,42.3,39.9,30.13,NE,44,1.0,5.0,91,0.00,OVC,,0.00,WeatherDisplay:10.37,2013-12-30 12:01:00,
2013-12-30 07:11:00,42.1,39.9,30.15,NE,44,1.0,3.0,92,0.00,OVC,,0.00,WeatherDisplay:10.37,2013-12-30 12:11:00,
2013-12-30 07:21:00,41.9,39.7,30.15,NE,43,2.0,5.0,92,0.00,OVC,,0.00,WeatherDisplay:10.37,2013-12-30 12:21:00,
2013-12-30 07:31:00,41.8,39.6,30.16,NE,41,3.0,6.0,92,0.00,OVC,,0.00,WeatherDisplay:10.37,2013-12-30 12:31:00,
2013-12-30 07:41:00,41.5,38.8,30.15,NE,42,7.0,10.0,90,0.00,OVC,,0.00,WeatherDisplay:10.37,2013-12-30 12:41:00,
2013-12-30 07:51:00,41.1,38.4,30.16,NE,42,3.0,8.0,90,0.00,OVC,,0.00,WeatherDisplay:10.37,2013-12-30 12:51:00,
2013-12-30 08:01:00,40.7,38.0,30.16,NE,40,3.0,12.0,90,0.00,OVC,,0.00,WeatherDisplay:10.37,2013-12-30 13:01:00,
2013-12-30 08:11:00,40.5,37.8,30.17,NE,41,3.0,7.0,90,0.00,OVC,,0.00,WeatherDisplay:10.37,2013-12-30 13:11:00,
2013-12-30 08:21:00,40.5,37.8,30.18,NE,35,1.0,5.0,90,0.00,OVC,,0.00,WeatherDisplay:10.37,2013-12-30 13:21:00,
2013-12-30 08:31:00,40.4,37.7,30.18,NNE,33,1.0,5.0,90,0.00,OVC,,0.00,WeatherDisplay:10.37,2013-12-30 13:31:00,
2013-12-30 08:41:00,40.4,37.4,30.18,NNE,21,3.0,6.0,89,0.00,OVC,,0.00,WeatherDisplay:10.37,2013-12-30 13:41:00,
2013-12-30 08:51:00,40.3,37.3,30.19,NE,37,2.0,5.0,89,0.00,OVC,,0.00,WeatherDisplay:10.37,2013-12-30 13:51:00,
2013-12-30 09:01:00,40.2,37.2,30.19,NE,34,2.0,6.0,89,0.00,OVC,,0.00,WeatherDisplay:10.37,2013-12-30 14:01:00,
2013-12-30 09:11:00,40.1,37.1,30.19,NE,43,3.0,7.0,89,0.00,OVC,,0.00,WeatherDisplay:10.37,2013-12-30 14:11:00,
2013-12-30 09:21:00,40.0,37.0,30.19,NE,37,2.0,6.0,89,0.00,OVC,,0.00,WeatherDisplay:10.37,2013-12-30 14:21:00,
2013-12-30 09:31:00,40.0,37.3,30.20,NE,40,3.0,6.0,90,0.00,OVC,,0.00,WeatherDisplay:10.37,2013-12-30 14:31:00,
2013-12-30 09:41:00,40.0,37.0,30.20,NE,41,3.0,6.0,89,0.00,OVC,,0.00,WeatherDisplay:10.37,2013-12-30 14:41:00,
2013-12-30 09:51:00,39.9,36.6,30.21,NE,39,3.0,6.0,88,0.00,OVC,,0.00,WeatherDisplay:10.37,2013-12-30 14:51:00,
2013-12-30 10:01:00,39.8,36.6,30.22,NE,53,2.0,7.0,88,0.00,OVC,,0.00,WeatherDisplay:10.37,2013-12-30 15:01:00,
2013-12-30 10:11:00,39.9,36.3,30.22,NE,37,1.0,6.0,87,0.00,OVC,,0.00,WeatherDisplay:10.37,2013-12-30 15:11:00,
2013-12-30 10:21:00,40.2,36.6,30.22,NE,39,2.0,6.0,87,0.00,OVC,,0.00,WeatherDisplay:10.37,2013-12-30 15:21:00,
2013-12-30 10:31:00,40.5,36.9,30.21,NE,44,2.0,6.0,87,0.00,OVC,,0.00,WeatherDisplay:10.37,2013-12-30 15:31:00,
2013-12-30 10:41:00,40.1,36.9,30.21,NE,37,1.0,7.0,88,0.00,OVC,,0.00,WeatherDisplay:10.37,2013-12-30 15:41:00,
2013-12-30 10:51:00,39.8,36.8,30.22,NE,44,2.0,6.0,89,0.00,OVC,,0.00,WeatherDisplay:10.37,2013-12-30 15:51:00,
2013-12-30 11:01:00,39.8,36.8,30.22,NE,43,2.0,4.0,89,0.00,OVC,,0.00,WeatherDisplay:10.37,2013-12-30 16:01:00,
2013-12-30 11:11:00,39.7,36.7,30.23,NE,43,2.0,5.0,89,0.00,OVC,,0.00,WeatherDisplay:10.37,2013-12-30 16:11:00,
2013-12-30 11:21:00,39.6,36.6,30.22,NE,39,3.0,6.0,89,0.00,OVC,,0.00,WeatherDisplay:10.37,2013-12-30 16:21:00,
2013-12-30 11:31:00,39.3,36.0,30.23,NE,40,5.0,7.0,88,0.00,OVC,,0.00,WeatherDisplay:10.37,2013-12-30 16:31:00,
2013-12-30 11:41:00,39.1,36.1,30.23,NE,46,2.0,8.0,89,0.00,OVC,,0.00,WeatherDisplay:10.37,2013-12-30 16:41:00,
2013-12-30 11:51:00,39.0,35.7,30.22,NE,38,5.0,7.0,88,0.00,OVC,,0.00,WeatherDisplay:10.37,2013-12-30 16:51:00,
2013-12-30 12:01:00,38.9,35.6,30.22,NE,39,3.0,7.0,88,0.00,OVC,,0.00,WeatherDisplay:10.37,2013-12-30 17:01:00,
2013-12-30 12:11:00,38.8,35.6,30.22,NE,38,5.0,8.0,88,0.00,OVC,,0.00,WeatherDisplay:10.37,2013-12-30 17:11:00,
2013-12-30 12:21:00,38.8,35.3,30.21,NE,41,5.0,7.0,87,0.00,OVC,,0.00,WeatherDisplay:10.37,2013-12-30 17:21:00,
2013-12-30 12:31:00,38.9,35.1,30.21,NE,47,5.0,6.0,86,0.00,OVC,,0.00,WeatherDisplay:10.37,2013-12-30 17:31:00,
2013-12-30 12:41:00,38.8,35.0,30.21,NE,36,1.0,7.0,86,0.00,OVC,,0.00,WeatherDisplay:10.37,2013-12-30 17:41:00,
2013-12-30 12:51:00,38.9,35.1,30.19,NNE,31,2.0,7.0,86,0.00,OVC,,0.00,WeatherDisplay:10.37,2013-12-30 17:51:00,
2013-12-30 13:01:00,38.9,34.8,30.19,NE,37,3.0,6.0,85,0.00,OVC,,0.00,WeatherDisplay:10.37,2013-12-30 18:01:00,
2013-12-30 13:11:00,38.9,34.8,30.19,NE,37,3.0,6.0,85,0.00,OVC,,0.00,WeatherDisplay:10.37,2013-12-30 18:11:00,
2013-12-30 13:21:00,39.1,35.0,30.19,NNE,26,1.0,5.0,85,0.00,OVC,,0.00,WeatherDisplay:10.37,2013-12-30 18:21:00,
2013-12-30 13:31:00,39.2,35.1,30.19,NE,38,2.0,4.0,85,0.00,OVC,,0.00,WeatherDisplay:10.37,2013-12-30 18:31:00,
2013-12-30 13:41:00,39.3,35.1,30.19,NE,46,0.0,4.0,85,0.00,OVC,,0.00,WeatherDisplay:10.37,2013-12-30 18:41:00,
2013-12-30 13:51:00,39.2,34.8,30.19,NE,53,1.0,5.0,84,0.00,OVC,,0.00,WeatherDisplay:10.37,2013-12-30 18:51:00,
2013-12-30 14:01:00,39.1,34.1,30.19,NE,52,1.0,4.0,82,0.00,OVC,,0.00,WeatherDisplay:10.37,2013-12-30 19:01:00,
2013-12-30 14:11:00,39.1,34.4,30.19,NE,51,0.0,7.0,83,0.00,BKN,,0.00,WeatherDisplay:10.37,2013-12-30 19:11:00,
2013-12-30 14:21:00,39.3,34.6,30.19,NNW,347,2.0,6.0,83,0.00,BKN,,0.00,WeatherDisplay:10.37,2013-12-30 19:21:00,
2013-12-30 14:31:00,39.5,34.5,30.19,NE,35,3.0,6.0,82,0.00,BKN,,0.00,WeatherDisplay:10.37,2013-12-30 19:31:00,
2013-12-30 14:41:00,39.8,34.8,30.19,NE,42,1.0,5.0,82,0.00,BKN,,0.00,WeatherDisplay:10.37,2013-12-30 19:41:00,
2013-12-30 14:51:00,39.9,34.5,30.19,NE,42,0.0,4.0,81,0.00,BKN,,0.00,WeatherDisplay:10.37,2013-12-30 19:51:00,
2013-12-30 15:01:00,40.0,34.9,30.20,NE,43,0.0,5.0,82,0.00,BKN,,0.00,WeatherDisplay:10.37,2013-12-30 20:01:00,
2013-12-30 15:11:00,40.0,34.3,30.20,NE,43,0.0,3.0,80,0.00,BKN,,0.00,WeatherDisplay:10.37,2013-12-30 20:11:00,
2013-12-30 15:21:00,39.8,34.1,30.18,NE,43,2.0,6.0,80,0.00,BKN,,0.00,WeatherDisplay:10.37,2013-12-30 20:21:00,
2013-12-30 15:31:00,39.7,34.7,30.19,NE,43,1.0,4.0,82,0.00,BKN,,0.00,WeatherDisplay:10.37,2013-12-30 20:31:00,
2013-12-30 15:41:00,39.7,34.0,30.18,NE,43,1.0,3.0,80,0.00,OVC,,0.00,WeatherDisplay:10.37,2013-12-30 20:41:00,
2013-12-30 15:51:00,39.8,34.1,30.19,NE,43,1.0,4.0,80,0.00,OVC,,0.00,WeatherDisplay:10.37,2013-12-30 20:51:00,
2013-12-30 16:01:00,39.8,34.1,30.19,NE,43,0.0,3.0,80,0.00,OVC,,0.00,WeatherDisplay:10.37,2013-12-30 21:01:00,
2013-12-30 16:11:00,39.7,34.0,30.18,NE,43,3.0,4.0,80,0.00,OVC,,0.00,WeatherDisplay:10.37,2013-12-30 21:11:00,
2013-12-30 16:21:00,39.7,34.3,30.18,NE,43,1.0,4.0,81,0.00,OVC,,0.00,WeatherDisplay:10.37,2013-12-30 21:21:00,
2013-12-30 16:31:00,39.7,34.3,30.18,NE,43,2.0,3.0,81,0.00,OVC,,0.00,WeatherDisplay:10.37,2013-12-30 21:31:00,
2013-12-30 16:41:00,39.6,33.9,30.18,NE,37,3.0,5.0,80,0.00,OVC,,0.00,WeatherDisplay:10.37,2013-12-30 21:41:00,
2013-12-30 16:51:00,39.5,34.2,30.18,NE,35,1.0,4.0,81,0.00,OVC,,0.00,WeatherDisplay:10.37,2013-12-30 21:51:00,
2013-12-30 17:01:00,39.4,34.1,30.18,NE,44,1.0,4.0,81,0.00,OVC,,0.00,WeatherDisplay:10.37,2013-12-30 22:01:00,
2013-12-30 17:11:00,39.4,34.0,30.18,NE,46,0.0,3.0,81,0.00,OVC,,0.00,WeatherDisplay:10.37,2013-12-30 22:11:00,
2013-12-30 17:21:00,39.3,34.0,30.19,NNE,23,2.0,4.0,81,0.00,OVC,,0.00,WeatherDisplay:10.37,2013-12-30 22:21:00,
2013-12-30 17:31:00,39.2,33.9,30.20,North,359,0.0,5.0,81,0.00,OVC,,0.00,WeatherDisplay:10.37,2013-12-30 22:31:00,
2013-12-30 17:41:00,39.1,33.8,30.20,NNE,33,2.0,4.0,81,0.00,OVC,,0.00,WeatherDisplay:10.37,2013-12-30 22:41:00,
2013-12-30 17:51:00,39.0,34.0,30.20,NE,46,2.0,4.0,82,0.00,OVC,,0.00,WeatherDisplay:10.37,2013-12-30 22:51:00,
2013-12-30 18:01:00,38.8,33.8,30.20,NE,47,3.0,5.0,82,0.00,OVC,,0.00,WeatherDisplay:10.37,2013-12-30 23:01:00,
2013-12-30 18:11:00,38.6,33.9,30.20,NE,47,2.0,4.0,83,0.00,OVC,,0.00,WeatherDisplay:10.37,2013-12-30 23:11:00,
2013-12-30 18:21:00,38.5,33.8,30.22,NE,41,1.0,3.0,83,0.00,OVC,,0.00,WeatherDisplay:10.37,2013-12-30 23:21:00,
2013-12-30 18:31:00,38.3,33.6,30.21,NE,35,2.0,5.0,83,0.00,OVC,,0.00,WeatherDisplay:10.37,2013-12-30 23:31:00,
2013-12-30 18:41:00,38.2,33.8,30.21,NE,40,1.0,5.0,84,0.00,OVC,,0.00,WeatherDisplay:10.37,2013-12-30 23:41:00,
2013-12-30 18:51:00,38.1,33.7,30.22,NNE,30,0.0,4.0,84,0.00,OVC,,0.00,WeatherDisplay:10.37,2013-12-30 23:51:00,
2013-12-30 19:01:00,38.0,33.9,30.21,NNE,24,1.0,3.0,85,0.00,OVC,,0.00,WeatherDisplay:10.37,2013-12-31 00:01:00,
2013-12-30 19:11:00,37.9,33.8,30.21,NNE,25,0.0,3.0,85,0.00,OVC,,0.00,WeatherDisplay:10.37,2013-12-31 00:11:00,
2013-12-30 19:21:00,37.7,33.9,30.22,NNE,25,1.0,2.0,86,0.00,OVC,,0.00,WeatherDisplay:10.37,2013-12-31 00:21:00,
2013-12-30 19:31:00,37.6,33.8,30.23,NNE,24,0.0,2.0,86,0.00,OVC,,0.00,WeatherDisplay:10.37,2013-12-31 00:31:00,
2013-12-30 19:41:00,37.6,33.2,30.23,NNE,25,1.0,3.0,84,0.00,-DZ,,0.00,WeatherDisplay:10.37,2013-12-31 00:41:00,
2013-12-30 19:51:00,37.6,33.5,30.23,NNE,25,0.0,2.0,85,0.00,-RA,,0.00,WeatherDisplay:10.37,2013-12-31 00:51:00,
2013-12-30 20:01:00,37.6,34.1,30.23,NNE,25,0.0,2.0,87,0.00,-RA,,0.00,WeatherDisplay:10.37,2013-12-31 01:01:00,
2013-12-30 20:11:00,37.5,34.0,30.24,NNE,25,0.0,0.0,87,0.00,-DZ,,0.00,WeatherDisplay:10.37,2013-12-31 01:11:00,
2013-12-30 20:21:00,37.3,33.5,30.24,ENE,58,0.0,3.0,86,0.00,-DZ,,0.00,WeatherDisplay:10.37,2013-12-31 01:21:00,
2013-12-30 20:31:00,37.3,33.5,30.24,ENE,63,0.0,1.0,86,0.00,-DZ,,0.00,WeatherDisplay:10.37,2013-12-31 01:31:00,
2013-12-30 20:41:00,37.3,33.5,30.24,ENE,63,0.0,2.0,86,0.00,OVC,,0.00,WeatherDisplay:10.37,2013-12-31 01:41:00,
2013-12-30 20:51:00,37.4,33.9,30.24,ENE,63,0.0,2.0,87,0.00,OVC,,0.00,WeatherDisplay:10.37,2013-12-31 01:51:00,
2013-12-30 21:01:00,37.5,34.0,30.25,ENE,63,0.0,1.0,87,0.00,OVC,,0.00,WeatherDisplay:10.37,2013-12-31 02:01:00,
2013-12-30 21:11:00,37.5,34.0,30.24,ENE,63,0.0,1.0,87,0.00,OVC,,0.00,WeatherDisplay:10.37,2013-12-31 02:11:00,
2013-12-30 21:21:00,37.5,34.0,30.24,ENE,63,0.0,2.0,87,0.00,OVC,,0.00,WeatherDisplay:10.37,2013-12-31 02:21:00,
2013-12-30 21:31:00,37.5,34.0,30.25,ENE,63,0.0,0.0,87,0.00,OVC,,0.00,WeatherDisplay:10.37,2013-12-31 02:31:00,
2013-12-30 21:41:00,37.6,34.4,30.25,ENE,63,0.0,0.0,88,0.00,OVC,,0.00,WeatherDisplay:10.37,2013-12-31 02:41:00,
2013-12-30 21:51:00,37.7,34.4,30.25,ENE,63,0.0,0.0,88,0.00,OVC,,0.00,WeatherDisplay:10.37,2013-12-31 02:51:00,
2013-12-30 22:01:00,37.7,34.8,30.26,ENE,63,0.0,0.0,89,0.00,OVC,,0.00,WeatherDisplay:10.37,2013-12-31 03:01:00,
2013-12-30 22:11:00,37.6,34.1,30.26,ENE,63,0.0,0.0,87,0.00,OVC,,0.00,WeatherDisplay:10.37,2013-12-31 03:11:00,
2013-12-30 22:21:00,37.7,34.2,30.25,ENE,63,0.0,2.0,87,0.00,OVC,,0.00,WeatherDisplay:10.37,2013-12-31 03:21:00,
2013-12-30 22:31:00,37.7,33.9,30.26,ENE,63,0.0,1.0,86,0.00,OVC,,0.00,WeatherDisplay:10.37,2013-12-31 03:31:00,
2013-12-30 22:41:00,37.8,33.7,30.26,ENE,63,0.0,1.0,85,0.00,OVC,,0.00,WeatherDisplay:10.37,2013-12-31 03:41:00,
2013-12-30 22:51:00,37.9,33.8,30.26,ENE,63,0.0,0.0,85,0.00,OVC,,0.00,WeatherDisplay:10.37,2013-12-31 03:51:00,
2013-12-30 23:01:00,37.9,34.1,30.26,ENE,63,0.0,0.0,86,0.00,OVC,,0.00,WeatherDisplay:10.37,2013-12-31 04:01:00,
2013-12-30 23:11:00,37.9,34.4,30.26,ENE,63,0.0,0.0,87,0.00,OVC,,0.00,WeatherDisplay:10.37,2013-12-31 04:11:00,
2013-12-30 23:21:00,37.9,34.1,30.26,ENE,63,0.0,1.0,86,0.00,OVC,,0.00,WeatherDisplay:10.37,2013-12-31 04:21:00,
2013-12-30 23:31:00,37.9,34.4,30.27,ENE,63,0.0,3.0,87,0.00,OVC,,0.00,WeatherDisplay:10.37,2013-12-31 04:31:00,
2013-12-30 23:41:00,37.9,34.4,30.27,ENE,63,0.0,0.0,87,0.00,OVC,,0.00,WeatherDisplay:10.37,2013-12-31 04:41:00,
2013-12-30 23:51:00,37.8,34.3,30.27,ENE,63,0.0,1.0,87,0.00,-DZ,,0.00,WeatherDisplay:10.37,2013-12-31 04:51:00,